Total_Precipitation_Accumulation
2.33 2.50 3.79 3.96 3.62 3.45 3.35 3.36 3.27 3.32 3.38 3.29 2.99 2.83 2.78 2.75 2.73 2.65 2.43 2.30 2.33 2.47 2.52 2.67 2.74 2.69 2.76 2.81 2.91 2.99 3.03 3.20 3.31 3.12 2.93 2.80 2.87 3.03 3.10 3.10 2.94 2.86 3.37
1.90 2.38 3.61 3.69 3.48 3.37 3.25 3.17 3.08 3.09 3.13 3.08 3.04 2.85 2.77 2.68 2.62 2.43 2.32 2.33 2.36 2.42 2.45 2.55 2.62 2.64 2.69 2.80 2.96 3.15 3.24 3.28 3.29 3.16 3.15 3.03 3.08 3.12 3.09 3.05 3.09 3.10 3.23
1.66 1.96 2.68 3.54 3.45 3.23 3.12 3.13 3.18 3.35 3.10 2.84 2.76 2.64 2.57 2.56 2.51 2.43 2.44 2.44 2.49 2.40 2.28 2.47 2.76 2.76 2.73 2.78 2.91 3.09 3.15 3.17 3.17 3.23 3.65 3.84 3.56 3.45 3.09 3.02 3.04 2.93 2.92
1.50 1.74 2.12 3.11 3.14 3.09 3.06 2.93 3.10 2.95 2.64 2.53 2.50 2.40 2.38 2.49 2.65 2.71 2.68 2.67 2.66 2.41 2.21 2.29 2.70 2.75 2.69 2.56 2.42 2.54 2.71 2.88 3.07 3.29 3.63 4.09 3.97 3.69 3.32 3.11 3.04 2.89 2.80
1.52 1.82 2.59 3.24 3.07 3.04 2.91 2.76 2.79 2.63 2.48 2.39 2.29 2.29 2.40 2.62 2.76 2.76 2.83 2.77 2.67 2.42 2.28 2.35 2.71 2.60 2.53 2.46 2.31 2.35 2.45 2.66 2.99 2.81 3.17 3.69 4.12 4.18 3.46 3.14 3.09 3.09 3.12
1.58 1.85 2.59 3.04 2.81 2.72 2.67 2.63 2.55 2.58 2.60 2.37 2.20 2.28 2.55 2.94 2.97 2.98 2.98 2.69 2.59 2.45 2.44 2.50 2.65 2.60 2.52 2.48 2.40 2.27 2.33 2.62 2.52 2.45 2.93 3.43 3.77 3.94 3.38 3.15 3.14 3.24 3.32
1.37 1.57 2.19 2.78 2.57 2.45 2.42 2.45 2.37 2.42 2.53 2.43 2.24 2.41 2.71 3.10 3.20 3.12 2.89 2.60 2.57 2.54 2.60 2.76 2.75 2.76 2.65 2.49 2.47 2.35 2.31 2.40 2.13 2.37 2.86 3.36 3.51 3.50 3.34 3.17 3.07 3.28 3.51
1.35 1.35 1.64 2.24 2.41 2.26 2.24 2.37 2.32 2.30 2.39 2.34 2.28 2.33 2.55 3.04 3.13 3.06 2.88 2.67 2.54 2.59 2.79 3.07 2.97 2.81 2.60 2.49 2.54 2.59 2.54 2.23 1.82 1.95 2.36 3.18 3.82 3.61 3.25 3.07 3.07 3.17 3.38
1.63 1.52 1.43 1.54 1.80 2.00 2.13 2.26 2.29 2.27 2.20 2.10 2.21 2.31 2.69 3.20 3.03 2.87 2.79 2.71 2.64 2.73 2.81 2.96 2.84 2.68 2.62 2.59 2.56 2.60 2.64 2.46 2.06 1.99 2.00 2.92 3.79 3.73 3.26 3.02 2.94 3.07 3.19
1.78 1.62 1.39 1.29 1.36 1.60 1.73 1.93 2.17 2.23 2.13 2.00 2.07 2.26 2.59 3.12 2.94 2.71 2.58 2.79 3.04 3.15 3.20 3.17 2.90 2.68 2.64 2.50 2.46 2.61 2.61 2.30 1.99 1.86 2.18 2.94 3.92 4.01 3.63 3.05 2.80 2.79 2.85
1.61 1.47 1.31 1.23 1.29 1.43 1.56 1.65 2.03 2.07 1.94 1.77 1.76 2.06 2.21 2.50 2.50 2.55 2.63 2.97 3.02 3.05 3.13 3.18 3.09 2.81 2.47 2.33 2.44 2.49 2.26 1.98 2.03 1.99 2.47 3.35 3.93 4.01 3.82 3.35 2.84 2.54 2.47
1.29 1.17 1.11 1.08 1.15 1.27 1.33 1.72 2.06 1.83 1.75 1.54 1.56 1.64 1.82 2.19 2.49 2.23 2.53 3.02 2.99 2.91 2.82 2.95 2.93 2.51 1.99 1.70 1.98 2.01 1.81 1.96 2.13 2.02 2.68 3.56 3.96 3.95 3.66 3.48 2.97 2.63 2.43
1.02 0.93 0.86 0.80 0.79 0.87 1.13 1.50 1.84 1.97 1.96 1.95 1.77 1.66 1.76 1.68 1.84 1.75 1.74 1.96 2.06 2.10 2.03 2.19 2.30 2.00 1.71 1.63 1.65 1.68 1.85 1.94 2.33 2.34 2.90 3.60 3.95 4.06 3.79 3.61 3.13 2.76 2.60
0.92 0.87 0.77 0.73 0.70 0.70 0.80 1.03 1.30 1.47 1.55 1.63 1.55 1.43 1.58 1.57 1.62 1.66 1.59 1.50 1.45 1.52 1.68 1.73 1.89 1.89 1.68 1.58 1.59 1.72 1.81 1.89 2.17 2.62 3.16 3.36 3.73 4.08 3.92 3.68 3.33 3.07 2.88
1.02 0.99 0.89 0.78 0.75 0.75 0.81 0.88 0.99 1.18 1.25 1.29 1.38 1.35 1.42 1.57 1.63 1.61 1.44 1.39 1.28 1.33 1.46 1.58 1.63 1.71 1.76 1.73 1.64 1.78 1.82 1.96 2.09 2.25 2.67 2.95 3.26 3.84 4.18 4.05 3.68 3.40 3.26
1.13 1.06 1.01 0.90 0.88 0.85 0.82 0.86 0.93 1.01 1.07 1.10 1.12 1.12 1.27 1.49 1.52 1.57 1.50 1.50 1.45 1.43 1.53 1.52 1.44 1.60 1.79 1.73 1.62 1.59 1.63 1.76 1.94 2.00 2.22 2.50 2.83 3.24 4.01 4.38 4.23 3.97 3.96
1.08 1.02 1.02 1.01 1.02 1.02 0.99 0.92 0.90 1.03 1.18 1.14 1.07 0.98 1.02 1.22 1.33 1.42 1.47 1.43 1.43 1.51 1.54 1.60 1.43 1.49 1.53 1.56 1.59 1.56 1.49 1.57 1.67 1.76 1.73 1.84 2.06 2.50 3.25 4.00 4.48 4.48 4.49
0.90 0.89 0.95 0.93 0.98 1.04 1.05 1.05 1.09 1.10 1.17 1.13 1.10 1.03 0.99 1.08 1.21 1.37 1.41 1.35 1.32 1.49 1.63 1.73 1.63 1.61 1.59 1.60 1.64 1.67 1.58 1.60 1.51 1.59 1.62 1.59 1.81 1.85 2.34 3.06 3.65 3.94 4.32
0.82 0.84 0.84 0.87 0.86 0.95 1.01 1.03 1.15 1.20 1.23 1.19 1.17 1.09 1.09 1.17 1.28 1.46 1.57 1.56 1.52 1.54 1.59 1.58 1.67 1.70 1.70 1.71 1.64 1.65 1.65 1.62 1.67 1.57 1.63 1.64 1.60 1.72 1.95 2.27 2.76 3.18 3.60
0.81 0.81 0.78 0.81 0.81 0.85 0.98 1.08 1.26 1.40 1.40 1.40 1.30 1.23 1.27 1.43 1.58 1.74 1.75 1.83 1.87 1.78 1.77 1.74 1.79 1.77 1.70 1.78 1.64 1.56 1.56 1.51 1.67 1.78 1.76 1.79 1.69 1.64 2.01 2.26 2.31 2.37 2.88
0.75 0.77 0.79 0.76 0.82 0.85 0.90 1.04 1.29 1.55 1.66 1.79 1.69 1.45 1.39 1.52 1.84 2.13 2.10 2.16 2.23 2.16 2.12 2.09 2.32 2.27 2.00 1.83 1.94 1.81 1.66 1.55 1.75 1.81 1.82 1.98 1.98 2.04 2.25 2.29 2.14 2.07 2.09
0.61 0.68 0.73 0.73 0.80 0.83 0.88 1.06 1.23 1.39 1.40 1.56 1.68 1.61 1.52 1.51 1.71 1.90 2.21 2.37 2.34 2.46 2.55 2.51 2.87 3.01 2.50 2.07 2.24 2.53 2.28 2.11 1.92 1.75 1.81 1.94 2.13 2.31 2.39 2.25 2.08 1.95 1.90
0.52 0.53 0.58 0.63 0.71 0.84 0.96 1.17 1.39 1.62 1.70 1.70 1.60 1.68 1.68 1.58 1.65 1.79 1.97 2.16 2.26 2.38 2.54 2.65 2.96 3.49 3.26 2.58 2.40 2.87 2.70 2.52 2.38 2.02 1.83 1.84 1.98 2.30 2.56 2.48 2.23 2.03 1.86
0.52 0.54 0.58 0.67 0.81 1.00 1.19 1.40 1.61 1.80 1.86 1.73 1.72 1.75 1.63 1.54 1.52 1.65 1.79 1.93 2.11 2.18 2.36 2.43 2.55 3.12 3.55 3.21 2.90 2.58 2.29 2.28 2.48 2.48 2.09 1.89 1.89 2.07 2.34 2.34 2.21 2.18 2.02
0.65 0.72 0.78 0.91 1.12 1.36 1.55 1.81 2.09 2.06 1.95 1.86 1.78 1.74 1.69 1.67 1.61 1.62 1.80 1.86 1.89 2.01 2.17 2.50 2.76 3.04 3.30 3.34 3.32 3.08 2.75 2.46 2.12 2.43 2.54 2.21 2.05 1.99 2.08 2.18 2.13 2.14 2.12
0.98 1.15 1.35 1.56 1.68 1.77 1.87 2.01 2.13 2.09 2.10 2.06 1.85 1.73 1.70 1.74 1.78 1.77 1.82 1.85 1.82 1.87 2.01 2.31 2.64 2.87 3.19 3.43 3.41 3.19 3.04 2.89 2.62 2.55 2.46 2.32 2.34 2.18 2.03 2.00 1.91 1.95 2.14